Wind_Speed
5 6 8 10 12 13 14 16 18 19 20 21 21 23 25 25 26 26 26 26 27 27 28 29 30 30 30 30 30 30 30 30 31 31 30 28 25 26 26 26 26 26 26
2 2 4 5 7 8 10 12 13 15 16 17 18 20 21 21 22 23 23 24 25 25 25 26 26 26 26 27 27 27 28 28 28 28 26 25 24 24 25 25 25 25 25
7 5 3 1 2 3 5 7 8 10 11 12 14 16 17 18 19 20 20 21 22 21 21 21 22 24 24 25 25 26 27 26 25 23 22 21 21 22 22 23 24 24 25
12 10 8 7 5 4 3 2 3 4 6 8 10 12 13 14 14 15 16 17 17 18 18 19 19 20 19 20 21 20 20 19 19 18 18 18 18 20 21 22 23 24 25
15 14 12 11 10 9 7 6 5 5 5 6 7 8 8 9 9 11 12 13 14 14 15 15 15 14 14 14 15 15 15 15 16 16 17 17 18 19 20 21 22 23 24
17 16 14 13 13 12 10 9 8 7 7 7 7 8 8 8 9 10 10 11 12 12 12 12 12 11 12 12 12 12 13 13 14 15 15 16 17 18 19 20 21 22 23
19 18 17 16 15 14 13 11 10 9 9 8 8 8 8 9 9 10 10 10 10 10 11 11 11 11 11 10 11 11 11 11 12 13 14 15 16 17 18 19 20 21 22
19 19 18 17 16 15 14 13 12 11 11 10 11 10 9 10 10 10 11 11 11 11 11 11 11 10 10 10 10 10 10 11 12 13 14 14 15 15 16 17 18 19 19
19 19 19 19 18 17 17 16 15 14 13 12 12 11 11 10 10 10 10 10 11 10 11 11 11 10 10 10 10 10 10 11 11 12 12 13 13 13 14 15 15 16 17
20 20 20 19 19 19 19 18 17 16 16 15 13 12 12 10 9 9 8 8 8 8 8 9 9 9 9 9 9 9 10 10 10 10 10 10 11 12 12 13 13 13 14
20 20 20 20 20 20 19 19 18 17 17 16 15 14 13 12 9 8 6 5 4 5 6 6 7 7 8 8 7 7 8 8 8 8 8 8 8 8 9 9 10 10 12
20 21 21 21 21 21 20 20 19 19 18 18 17 16 14 13 11 9 8 5 3 1 2 4 4 5 5 5 5 5 5 5 5 5 5 5 5 5 6 6 7 8 9
20 21 21 21 21 21 21 21 20 20 19 18 18 17 16 15 13 12 10 9 7 5 4 4 4 4 3 4 3 3 3 4 4 4 4 4 3 3 4 5 6 6 7
20 21 21 21 21 21 21 21 21 21 20 19 19 18 17 17 16 15 14 13 11 10 9 8 7 6 6 5 5 4 3 2 2 2 2 2 1 2 2 3 4 5 7
20 20 21 22 21 21 21 22 22 22 21 20 20 20 19 18 17 17 16 15 14 14 13 12 10 9 8 7 6 5 4 3 3 3 2 2 2 2 3 4 5 6 7
19 20 20 21 21 21 21 22 22 22 21 21 21 21 20 19 19 18 17 17 16 15 14 13 12 11 10 9 8 8 7 7 6 6 5 5 5 5 5 5 6 7 8
18 19 20 20 20 20 21 21 21 21 21 21 21 21 21 20 20 19 19 18 17 17 15 14 13 13 12 11 11 10 10 10 9 9 8 7 7 6 6 6 6 7 8
17 18 19 19 20 20 20 20 20 20 20 20 20 21 20 20 20 20 19 19 18 17 17 16 15 15 14 13 13 13 12 11 11 10 9 8 7 7 6 6 6 7 8
15 16 17 17 18 18 18 18 19 18 18 19 19 19 20 20 19 19 19 18 18 17 17 17 16 16 15 15 14 14 13 12 11 10 10 9 8 8 7 7 7 7 8
13 14 15 16 16 17 17 17 17 17 17 17 17 17 18 18 18 18 18 17 17 17 17 16 16 15 15 14 14 13 13 12 11 11 10 10 9 9 8 8 8 8 8
11 12 13 13 14 15 15 15 15 15 15 15 15 15 15 15 16 16 16 16 16 16 16 16 16 15 14 14 14 13 13 13 12 11 11 10 9 9 9 8 8 9 9
10 10 11 12 12 12 13 13 13 13 13 13 12 12 12 13 13 13 13 14 14 14 14 15 15 14 14 14 13 13 13 12 12 11 10 10 9 9 9 9 9 10 10
10 10 10 10 10 11 11 11 11 11 11 11 10 10 10 10 10 11 11 11 11 12 12 12 12 13 12 12 12 12 11 11 11 11 10 10 10 10 10 10 10 11 11
11 10 10 10 10 10 10 10 10 9 9 9 8 8 8 8 8 8 9 9 9 9 9 9 10 10 10 10 10 10 10 10 10 10 10 10 10 10 10 10 11 12 12
12 12 12 11 11 10 10 9 9 9 8 8 7 7 6 6 6 6 6 6 6 7 7 7 7 8 8 8 9 9 9 9 10 10 10 10 10 10 10 11 12 12 13
15 14 14 13 13 12 11 11 10 10 9 8 8 8 7 7 6 6 5 5 5 5 5 6 6 6 7 7 7 7 8 8 9 9 9 10 10 10 11 11 12 12 13
Wind_Direction
283 261 252 250 251 254 255 256 257 258 258 258 257 258 261 263 263 263 262 263 260 258 257 258 258 257 254 254 252 250 249 249 250 248 248 248 249 252 255 257 260 264 267
350 296 262 258 259 258 259 257 258 260 262 260 259 260 262 263 264 264 263 264 261 261 263 261 259 257 255 253 251 249 249 248 248 247 246 247 250 252 255 258 261 264 268
59 57 54 1 287 278 270 264 263 265 265 263 265 265 264 264 263 262 260 262 263 263 262 260 257 255 253 251 249 247 246 247 246 246 246 248 252 255 259 263 266 268 270
60 59 61 58 48 35 18 345 302 285 282 278 276 275 269 268 266 265 263 262 263 260 258 256 255 254 253 253 250 248 248 247 247 248 249 253 257 260 263 266 267 268 270
57 57 55 52 48 45 42 36 21 5 347 329 312 303 296 286 278 274 268 266 263 261 259 259 258 255 252 251 250 251 251 249 250 250 253 256 260 262 264 266 268 269 271
55 54 53 51 47 44 39 32 22 12 359 342 328 316 306 298 293 287 278 270 265 264 263 263 261 259 255 251 250 249 249 251 252 253 256 259 262 264 266 267 269 270 272
53 52 49 47 44 41 36 30 23 16 8 356 340 326 312 299 293 289 282 272 265 265 263 262 261 260 257 253 246 247 251 255 257 259 261 262 265 267 269 270 271 272 273
49 46 46 43 40 36 33 28 23 17 9 358 348 337 325 315 305 298 289 280 275 270 262 256 255 255 254 254 255 254 254 257 259 260 262 263 266 268 269 272 273 274 276
45 43 41 38 36 32 29 27 23 17 11 3 356 348 338 328 318 308 295 284 279 274 266 260 255 250 250 251 252 253 255 257 257 257 260 262 264 267 271 274 275 276 278
39 37 35 33 31 29 26 24 21 18 15 11 6 360 353 344 332 324 314 294 281 270 260 251 247 245 246 248 248 250 251 252 252 253 257 261 266 271 275 275 275 278 282
35 33 32 31 29 26 24 22 20 18 17 15 13 10 7 4 359 352 343 322 294 271 253 243 237 234 233 237 242 244 244 246 249 252 259 267 268 273 279 281 283 287 290
32 31 30 29 27 26 25 24 23 22 21 21 21 20 21 21 22 23 23 23 14 321 227 213 208 204 209 215 222 227 230 236 240 244 254 263 270 280 288 294 299 304 305
31 30 29 28 28 27 27 27 26 26 27 28 29 31 32 34 37 39 42 48 54 70 98 122 138 150 159 166 175 191 207 214 222 235 249 259 272 290 304 314 322 325 326
29 29 29 28 28 28 29 29 30 31 33 35 36 37 39 42 45 49 53 57 64 74 84 95 106 112 116 123 129 135 145 159 190 210 222 227 263 327 348 360 0 358 357
29 29 29 28 28 29 30 31 33 35 37 39 41 42 45 48 52 56 59 63 68 75 80 86 93 98 102 106 107 107 107 111 119 125 124 120 96 68 58 45 31 23 16
28 28 28 28 29 30 32 34 35 38 41 42 44 47 50 53 57 60 64 67 69 73 78 81 84 87 91 94 94 94 94 95 97 98 100 100 95 83 72 56 41 33 27
26 27 28 28 29 30 32 34 37 40 43 45 47 50 53 56 59 62 66 68 70 72 74 77 80 83 86 88 88 88 89 91 93 94 93 91 87 79 70 60 48 39 35
23 24 25 27 28 29 32 34 37 40 43 46 49 52 54 57 60 63 65 67 69 71 73 75 77 80 83 84 84 85 86 88 89 87 85 82 78 74 68 60 51 42 36
18 20 23 25 26 28 31 33 36 40 43 47 50 53 55 58 60 61 63 65 67 69 72 75 77 78 79 79 80 80 81 82 82 80 78 75 73 70 65 58 50 42 34
9 14 18 21 23 26 28 31 34 38 41 45 48 51 54 56 58 60 62 64 65 67 70 71 73 74 75 75 76 76 75 75 75 74 73 71 68 64 59 52 45 38 31
359 4 9 14 18 21 24 27 30 33 37 41 45 48 52 54 56 58 60 62 64 66 67 67 68 69 71 71 72 73 73 73 72 70 68 65 60 56 51 45 39 33 27
348 354 358 3 9 14 17 21 25 28 32 36 40 43 46 49 51 53 56 58 60 62 63 64 65 66 67 69 69 69 67 65 64 62 60 57 53 49 43 38 34 30 25
328 335 342 349 355 360 5 10 14 18 22 28 33 36 40 43 45 47 50 52 55 57 59 60 60 60 61 62 61 60 57 55 54 53 52 51 48 45 41 36 31 27 23
310 316 321 327 333 339 346 352 358 2 6 9 14 21 26 31 35 38 40 44 47 50 51 51 52 51 51 50 49 48 47 46 45 44 43 41 37 33 29 25 20 16 13
298 301 304 309 313 316 322 327 333 339 343 345 348 351 356 1 7 14 19 24 29 33 35 37 37 37 37 37 36 36 36 35 34 33 31 28 25 21 18 15 13 10 7
292 293 294 296 299 301 303 307 311 314 318 321 322 322 323 324 324 327 332 339 346 354 2 7 10 12 14 15 16 17 19 19 18 17 16 14 12 11 9 7 6 5 4
Height
5771 5772 5773 5775 5778 5780 5782 5784 5786 5787 5789 5790 5790 5792 5793 5794 5795 5795 5796 5797 5798 5799 5800 5801 5802 5803 5805 5806 5808 5809 5811 5812 5814 5816 5818 5819 5821 5823 5824 5825 5826 5827 5827
5771 5772 5773 5774 5776 5777 5778 5780 5781 5782 5783 5784 5785 5786 5787 5787 5788 5789 5789 5790 5791 5792 5793 5794 5794 5796 5797 5798 5800 5802 5803 5804 5806 5808 5810 5812 5814 5816 5817 5819 5820 5820 5821
5773 5772 5773 5774 5775 5775 5776 5777 5778 5779 5779 5780 5780 5781 5781 5781 5782 5782 5783 5783 5784 5785 5786 5787 5788 5789 5790 5791 5793 5794 5796 5797 5799 5801 5803 5805 5807 5810 5811 5812 5813 5814 5814
5775 5775 5774 5775 5775 5775 5775 5775 5775 5776 5776 5776 5776 5776 5776 5776 5776 5777 5777 5777 5778 5779 5780 5780 5782 5783 5784 5785 5786 5788 5790 5792 5793 5796 5798 5800 5802 5804 5805 5806 5807 5807 5807
5779 5778 5778 5777 5776 5776 5775 5775 5775 5774 5774 5773 5773 5772 5772 5772 5772 5772 5772 5772 5773 5774 5774 5775 5776 5777 5778 5780 5782 5783 5785 5787 5789 5791 5794 5795 5797 5799 5800 5801 5801 5801 5801
5783 5782 5781 5780 5778 5777 5776 5775 5774 5774 5773 5772 5771 5770 5769 5769 5768 5768 5768 5768 5768 5769 5770 5770 5771 5773 5774 5776 5778 5780 5782 5784 5785 5787 5789 5791 5792 5793 5794 5794 5795 5795 5795
5787 5786 5784 5782 5781 5779 5777 5776 5775 5773 5772 5771 5769 5768 5767 5766 5765 5764 5764 5764 5764 5765 5765 5766 5768 5769 5771 5772 5774 5776 5778 5780 5782 5784 5785 5786 5787 5788 5789 5789 5789 5789 5789
5792 5790 5787 5785 5783 5781 5779 5777 5775 5773 5771 5769 5767 5765 5763 5762 5761 5760 5760 5759 5760 5760 5761 5762 5764 5765 5767 5769 5771 5773 5774 5776 5778 5779 5780 5781 5782 5783 5783 5784 5783 5783 5783
5796 5793 5791 5788 5786 5783 5780 5777 5775 5772 5770 5767 5765 5763 5761 5759 5757 5756 5755 5755 5755 5756 5757 5758 5760 5761 5763 5765 5767 5769 5771 5772 5773 5775 5776 5777 5778 5778 5778 5779 5779 5778 5778
5800 5797 5794 5791 5788 5785 5782 5779 5776 5773 5770 5767 5764 5761 5759 5756 5754 5753 5752 5752 5751 5752 5753 5754 5756 5758 5760 5762 5764 5765 5767 5768 5770 5771 5772 5773 5774 5774 5774 5774 5774 5774 5773
5803 5800 5797 5794 5791 5787 5784 5780 5777 5774 5770 5767 5763 5760 5757 5755 5752 5751 5750 5749 5749 5749 5750 5751 5753 5755 5757 5759 5761 5762 5764 5765 5766 5768 5769 5770 5770 5770 5770 5770 5770 5770 5769
5807 5804 5800 5797 5793 5790 5786 5782 5778 5775 5771 5767 5764 5761 5757 5755 5752 5750 5749 5748 5747 5748 5748 5750 5751 5753 5755 5757 5758 5760 5761 5763 5764 5765 5766 5767 5768 5768 5768 5767 5767 5767 5766
5810 5807 5804 5800 5796 5793 5789 5785 5781 5777 5773 5769 5766 5762 5759 5756 5754 5752 5750 5749 5748 5748 5748 5749 5751 5752 5754 5755 5757 5759 5760 5761 5762 5763 5764 5765 5766 5766 5766 5766 5765 5764 5763
5814 5810 5807 5803 5800 5796 5792 5788 5784 5780 5776 5772 5769 5765 5762 5759 5756 5754 5753 5751 5750 5750 5750 5751 5752 5753 5754 5756 5757 5758 5759 5760 5761 5762 5763 5764 5764 5764 5764 5764 5764 5763 5762
5817 5813 5810 5806 5803 5799 5795 5791 5787 5783 5779 5776 5773 5769 5766 5763 5761 5759 5757 5755 5754 5754 5754 5754 5754 5755 5756 5757 5758 5759 5759 5760 5760 5761 5762 5763 5763 5764 5764 5764 5763 5762 5761
5820 5817 5813 5810 5806 5802 5799 5795 5791 5787 5784 5780 5777 5774 5771 5768 5765 5764 5762 5760 5759 5758 5758 5758 5758 5758 5759 5759 5760 5760 5760 5761 5761 5762 5762 5763 5763 5764 5764 5764 5764 5763 5761
5823 5820 5816 5813 5809 5806 5802 5799 5795 5792 5789 5785 5782 5779 5776 5774 5771 5769 5767 5766 5764 5763 5763 5762 5762 5762 5762 5762 5762 5762 5762 5763 5763 5763 5764 5764 5764 5765 5765 5765 5764 5763 5762
5825 5822 5819 5816 5813 5809 5806 5803 5800 5796 5794 5791 5788 5785 5782 5779 5777 5775 5773 5772 5770 5769 5768 5767 5767 5766 5766 5766 5766 5766 5766 5766 5766 5766 5766 5766 5766 5766 5766 5766 5765 5764 5763
5827 5825 5822 5819 5816 5813 5810 5807 5804 5801 5798 5795 5793 5790 5788 5785 5783 5781 5779 5777 5776 5775 5773 5772 5772 5771 5771 5770 5770 5770 5769 5769 5769 5769 5769 5768 5768 5768 5767 5767 5766 5765 5764
5829 5826 5824 5821 5819 5816 5813 5810 5807 5805 5802 5800 5797 5795 5793 5790 5788 5786 5784 5783 5781 5780 5779 5777 5777 5776 5775 5775 5774 5774 5773 5773 5772 5772 5771 5771 5770 5770 5769 5768 5767 5766 5765
5829 5827 5825 5823 5821 5818 5816 5813 5811 5808 5806 5803 5801 5799 5797 5795 5793 5791 5790 5788 5786 5785 5784 5782 5781 5780 5779 5779 5778 5777 5777 5776 5775 5775 5774 5773 5772 5772 5771 5770 5768 5767 5766
5829 5828 5826 5824 5822 5820 5817 5815 5813 5811 5809 5806 5804 5803 5801 5799 5797 5795 5794 5792 5791 5789 5788 5787 5786 5785 5784 5783 5782 5781 5780 5779 5778 5777 5776 5775 5774 5773 5772 5771 5769 5768 5766
5828 5827 5825 5824 5822 5820 5819 5817 5815 5813 5811 5809 5807 5805 5803 5802 5800 5799 5797 5796 5794 5793 5792 5790 5789 5788 5787 5786 5785 5784 5783 5782 5781 5779 5778 5777 5776 5775 5773 5772 5770 5768 5766
5827 5825 5824 5823 5821 5820 5819 5817 5815 5814 5812 5810 5809 5807 5805 5804 5802 5801 5800 5798 5797 5796 5794 5793 5792 5791 5790 5788 5787 5786 5785 5784 5782 5781 5780 5778 5777 5776 5774 5772 5771 5769 5767
5824 5823 5822 5821 5820 5819 5817 5816 5815 5813 5812 5811 5809 5808 5806 5805 5804 5802 5801 5800 5799 5797 5796 5795 5794 5792 5791 5790 5789 5788 5786 5785 5784 5782 5781 5779 5778 5776 5774 5773 5771 5769 5766
5820 5819 5819 5818 5817 5816 5815 5814 5813 5812 5811 5809 5808 5807 5806 5805 5804 5802 5801 5800 5799 5798 5797 5796 5794 5793 5792 5791 5790 5788 5787 5786 5784 5783 5781 5780 5778 5776 5774 5772 5770 5768 5766